Year,Month,Day,Hour,Minute,Value (Times are PST for temperature in C)
2014,05,02,00,00,20.40
2014,05,02,00,01,20.40
2014,05,02,00,05,20.40
2014,05,02,00,06,20.50
2014,05,02,00,07,20.50
2014,05,02,00,08,20.50
2014,05,02,00,09,20.50
2014,05,02,00,10,20.40
2014,05,02,00,11,20.40
2014,05,02,00,12,20.50
2014,05,02,00,13,20.40
2014,05,02,00,14,20.50
2014,05,02,00,15,20.50
2014,05,02,00,16,20.50
2014,05,02,00,17,20.50
2014,05,02,00,18,20.40
2014,05,02,00,19,20.30
2014,05,02,00,20,20.10
2014,05,02,00,21,19.90
2014,05,02,00,22,19.80
2014,05,02,00,23,19.70
2014,05,02,00,24,19.50
2014,05,02,00,25,19.40
2014,05,02,00,26,19.40
2014,05,02,00,27,19.50
2014,05,02,00,28,19.70
2014,05,02,00,29,19.90
2014,05,02,00,30,19.90
2014,05,02,00,31,19.90
2014,05,02,00,32,20.00
2014,05,02,00,33,20.20
2014,05,02,00,34,20.20
2014,05,02,00,35,20.30
2014,05,02,00,36,20.30
2014,05,02,00,37,20.40
2014,05,02,00,38,20.30
2014,05,02,00,39,20.20
2014,05,02,00,40,20.20
2014,05,02,00,41,20.10
2014,05,02,00,42,20.10
2014,05,02,00,43,20.10
2014,05,02,00,44,20.10
2014,05,02,00,45,20.00
2014,05,02,00,46,19.90
2014,05,02,00,47,20.20
2014,05,02,00,48,20.40
2014,05,02,00,49,20.60
2014,05,02,00,50,20.70
2014,05,02,00,51,20.70
2014,05,02,00,52,20.70
2014,05,02,00,53,20.70
2014,05,02,00,54,20.70
2014,05,02,00,55,20.70
2014,05,02,00,56,20.70
2014,05,02,00,57,20.70
2014,05,02,00,58,20.60
2014,05,02,00,59,20.60
2014,05,02,01,00,20.70
2014,05,02,01,01,20.70
2014,05,02,01,02,20.70
2014,05,02,01,03,20.70
2014,05,02,01,04,20.60
2014,05,02,01,05,20.40
2014,05,02,01,06,20.40
2014,05,02,01,07,20.40
2014,05,02,01,08,20.40
2014,05,02,01,09,20.50
2014,05,02,01,10,20.50
2014,05,02,01,11,20.50
2014,05,02,01,12,20.40
2014,05,02,01,13,20.40
2014,05,02,01,14,20.50
2014,05,02,01,15,20.60
2014,05,02,01,16,20.60
2014,05,02,01,17,20.50
2014,05,02,01,18,20.40
2014,05,02,01,19,20.30
2014,05,02,01,20,20.20
2014,05,02,01,21,20.30
2014,05,02,01,22,20.30
2014,05,02,01,23,20.30
2014,05,02,01,24,20.30
2014,05,02,01,25,20.40
2014,05,02,01,26,20.40
2014,05,02,01,27,20.40
2014,05,02,01,28,20.40
2014,05,02,01,29,20.40
2014,05,02,01,30,20.40
2014,05,02,01,31,20.40
2014,05,02,01,32,20.40
2014,05,02,01,33,20.40
2014,05,02,01,34,20.40
2014,05,02,01,35,20.40
2014,05,02,01,36,20.40
2014,05,02,01,37,20.50
2014,05,02,01,38,20.60
2014,05,02,01,39,20.80
2014,05,02,01,40,21.00
2014,05,02,01,41,21.00
2014,05,02,01,42,21.10
2014,05,02,01,43,21.20
2014,05,02,01,44,21.20
2014,05,02,01,45,21.20
2014,05,02,01,46,21.20
2014,05,02,01,47,21.20
2014,05,02,01,48,21.20
2014,05,02,01,49,21.20
2014,05,02,01,50,21.30
2014,05,02,01,51,21.30
2014,05,02,01,52,21.30
2014,05,02,01,53,21.20
2014,05,02,01,54,21.20
2014,05,02,01,55,21.20
2014,05,02,01,56,21.10
2014,05,02,01,57,21.10
2014,05,02,01,58,21.00
2014,05,02,01,59,21.00
2014,05,02,02,00,21.00
2014,05,02,02,01,20.90
2014,05,02,02,02,20.90
2014,05,02,02,03,20.80
2014,05,02,02,04,20.80
2014,05,02,02,05,20.70
2014,05,02,02,06,20.70
2014,05,02,02,07,20.60
2014,05,02,02,08,20.50
2014,05,02,02,09,20.40
2014,05,02,02,10,20.30
2014,05,02,02,11,20.20
2014,05,02,02,12,20.20
2014,05,02,02,13,20.20
2014,05,02,02,14,20.20
2014,05,02,02,15,20.20
2014,05,02,02,16,20.20
2014,05,02,02,17,20.20
2014,05,02,02,18,20.20
2014,05,02,02,19,20.20
2014,05,02,02,20,20.20
2014,05,02,02,21,20.20
2014,05,02,02,22,20.10
2014,05,02,02,23,20.10
2014,05,02,02,24,20.00
2014,05,02,02,25,20.00
2014,05,02,02,26,19.90
2014,05,02,02,27,19.90
2014,05,02,02,28,19.90
2014,05,02,02,29,19.90
2014,05,02,02,30,19.90
2014,05,02,02,31,19.90
2014,05,02,02,32,19.90
2014,05,02,02,33,19.80
2014,05,02,02,34,19.90
2014,05,02,02,35,19.90
2014,05,02,02,36,19.70
2014,05,02,02,37,19.60
2014,05,02,02,38,19.60
2014,05,02,02,39,19.60
2014,05,02,02,40,19.70
2014,05,02,02,41,19.70
2014,05,02,02,42,19.90
2014,05,02,02,43,19.90
2014,05,02,02,44,19.90
2014,05,02,02,45,19.90
2014,05,02,02,46,19.90
2014,05,02,02,47,19.90
2014,05,02,02,48,19.90
2014,05,02,02,49,19.90
2014,05,02,02,50,19.90
2014,05,02,02,51,19.80
2014,05,02,02,52,19.80
2014,05,02,02,53,19.80
2014,05,02,02,54,19.70
2014,05,02,02,55,19.70
2014,05,02,02,56,19.70
2014,05,02,02,57,19.70
2014,05,02,02,58,19.70
2014,05,02,02,59,19.70
2014,05,02,03,00,19.70
2014,05,02,03,01,19.70
2014,05,02,03,02,19.70
2014,05,02,03,03,19.60
2014,05,02,03,04,19.60
2014,05,02,03,05,19.50
2014,05,02,03,06,19.50
2014,05,02,03,07,19.50
2014,05,02,03,08,19.50
2014,05,02,03,09,19.60
2014,05,02,03,10,19.60
2014,05,02,03,11,19.50
2014,05,02,03,12,19.50
2014,05,02,03,13,19.50
2014,05,02,03,14,19.40
2014,05,02,03,15,19.30
2014,05,02,03,16,19.20
2014,05,02,03,17,19.20
2014,05,02,03,18,19.10
2014,05,02,03,19,19.10
2014,05,02,03,20,19.10
2014,05,02,03,21,19.00
2014,05,02,03,22,18.90
2014,05,02,03,23,18.80
2014,05,02,03,24,18.70
2014,05,02,03,25,18.60
2014,05,02,03,26,18.50
2014,05,02,03,27,18.40
2014,05,02,03,28,18.40
2014,05,02,03,29,18.30
2014,05,02,03,30,18.30
2014,05,02,03,31,18.30
2014,05,02,03,32,18.30
2014,05,02,03,33,18.30
2014,05,02,03,34,18.30
2014,05,02,03,35,18.20
2014,05,02,03,36,18.10
2014,05,02,03,37,18.10
2014,05,02,03,38,18.20
2014,05,02,03,39,18.30
2014,05,02,03,40,18.40
2014,05,02,03,41,18.50
2014,05,02,03,42,18.50
2014,05,02,03,43,18.60
2014,05,02,03,44,18.60
2014,05,02,03,45,18.60
2014,05,02,03,46,18.60
2014,05,02,03,47,18.50
2014,05,02,03,48,18.40
2014,05,02,03,49,18.40
2014,05,02,03,50,18.30
2014,05,02,03,51,18.40
2014,05,02,03,52,18.40
2014,05,02,03,53,18.50
2014,05,02,03,54,18.50
2014,05,02,03,55,18.50
2014,05,02,03,56,18.60
2014,05,02,03,57,18.70
2014,05,02,03,58,18.80
2014,05,02,03,59,18.90
2014,05,02,04,00,18.90
2014,05,02,04,01,19.00
2014,05,02,04,02,19.10
2014,05,02,04,03,19.10
2014,05,02,04,04,19.00
2014,05,02,04,05,18.80
2014,05,02,04,06,18.70
2014,05,02,04,07,18.70
2014,05,02,04,08,18.60
2014,05,02,04,09,18.60
2014,05,02,04,10,18.70
2014,05,02,04,11,18.70
2014,05,02,04,12,18.80
2014,05,02,04,13,18.80
2014,05,02,04,14,18.90
2014,05,02,04,15,18.90
2014,05,02,04,16,19.00
2014,05,02,04,17,19.00
2014,05,02,04,18,19.10
2014,05,02,04,19,19.10
2014,05,02,04,20,19.10
2014,05,02,04,21,19.10
2014,05,02,04,22,19.10
2014,05,02,04,23,19.10
2014,05,02,04,24,19.10
2014,05,02,04,25,19.20
2014,05,02,04,26,19.20
2014,05,02,04,27,19.20
2014,05,02,04,28,19.10
2014,05,02,04,29,19.10
2014,05,02,04,30,19.00
2014,05,02,04,31,18.90
2014,05,02,04,32,18.90
2014,05,02,04,33,18.90
2014,05,02,04,34,18.90
2014,05,02,04,35,18.90
2014,05,02,04,36,18.90
2014,05,02,04,37,18.90
2014,05,02,04,38,18.90
2014,05,02,04,39,18.90
2014,05,02,04,40,18.90
2014,05,02,04,41,18.90
2014,05,02,04,42,19.00
2014,05,02,04,43,19.00
2014,05,02,04,44,19.00
2014,05,02,04,45,19.00
2014,05,02,04,46,19.00
2014,05,02,04,47,19.00
2014,05,02,04,48,19.10
2014,05,02,04,49,19.10
2014,05,02,04,50,19.10
2014,05,02,04,51,19.00
2014,05,02,04,52,19.00
2014,05,02,04,53,18.90
2014,05,02,04,54,18.90
2014,05,02,04,55,18.90
2014,05,02,04,56,18.90
2014,05,02,04,57,18.90
2014,05,02,04,58,18.90
2014,05,02,04,59,18.90
2014,05,02,05,00,18.90
2014,05,02,05,01,18.80
2014,05,02,05,02,18.80
2014,05,02,05,03,18.80
2014,05,02,05,04,18.80
2014,05,02,05,05,18.70
2014,05,02,05,06,18.70
2014,05,02,05,07,18.70
2014,05,02,05,08,18.60
2014,05,02,05,09,18.60
2014,05,02,05,10,18.60
2014,05,02,05,11,18.60
2014,05,02,05,12,18.60
2014,05,02,05,13,18.60
2014,05,02,05,14,18.60
2014,05,02,05,15,18.60
2014,05,02,05,16,18.50
2014,05,02,05,17,18.50
2014,05,02,05,18,18.40
2014,05,02,05,19,18.40
2014,05,02,05,20,18.40
2014,05,02,05,21,18.40
2014,05,02,05,22,18.40
2014,05,02,05,23,18.30
2014,05,02,05,24,18.30
2014,05,02,05,25,18.30
2014,05,02,05,26,18.20
2014,05,02,05,27,18.20
2014,05,02,05,28,18.20
2014,05,02,05,29,18.20
2014,05,02,05,30,18.20
2014,05,02,05,31,18.20
2014,05,02,05,32,18.20
2014,05,02,05,33,18.20
2014,05,02,05,34,18.20
2014,05,02,05,35,18.20
2014,05,02,05,36,18.20
2014,05,02,05,37,18.20
2014,05,02,05,38,18.20
2014,05,02,05,39,18.10
2014,05,02,05,40,18.10
2014,05,02,05,41,18.10
2014,05,02,05,42,18.10
2014,05,02,05,43,18.10
2014,05,02,05,44,18.20
2014,05,02,05,45,18.20
2014,05,02,05,46,18.20
2014,05,02,05,47,18.20
2014,05,02,05,48,18.20
2014,05,02,05,49,18.30
2014,05,02,05,50,18.30
2014,05,02,05,51,18.30
2014,05,02,05,52,18.30
2014,05,02,05,53,18.30
2014,05,02,05,54,18.30
2014,05,02,05,55,18.30
2014,05,02,05,56,18.20
2014,05,02,05,57,18.20
2014,05,02,05,58,18.20
2014,05,02,05,59,18.20
2014,05,02,06,00,18.20
2014,05,02,06,01,18.20
2014,05,02,06,02,18.10
2014,05,02,06,03,18.10
2014,05,02,06,04,18.10
2014,05,02,06,05,18.10
2014,05,02,06,06,18.10
2014,05,02,06,07,18.00
2014,05,02,06,08,18.00
2014,05,02,06,09,17.90
2014,05,02,06,10,17.80
2014,05,02,06,11,17.80
2014,05,02,06,12,17.80
2014,05,02,06,13,17.70
2014,05,02,06,14,17.70
2014,05,02,06,15,17.70
2014,05,02,06,16,17.70
2014,05,02,06,17,17.70
2014,05,02,06,18,17.70
2014,05,02,06,19,17.70
2014,05,02,06,20,17.70
2014,05,02,06,21,17.70
2014,05,02,06,22,17.70
2014,05,02,06,23,17.70
2014,05,02,06,24,17.70
2014,05,02,06,25,17.60
2014,05,02,06,26,17.60
2014,05,02,06,27,17.60
2014,05,02,06,28,17.60
2014,05,02,06,29,17.60
2014,05,02,06,30,17.60
2014,05,02,06,31,17.60
2014,05,02,06,32,17.60
2014,05,02,06,33,17.60
2014,05,02,06,34,17.60
2014,05,02,06,35,17.60
2014,05,02,06,36,17.60
2014,05,02,06,37,17.60
2014,05,02,06,38,17.50
2014,05,02,06,39,17.50
2014,05,02,06,40,17.50
2014,05,02,06,41,17.40
2014,05,02,06,42,17.40
2014,05,02,06,43,17.40
2014,05,02,06,44,17.40
2014,05,02,06,45,17.40
2014,05,02,06,46,17.50
2014,05,02,06,47,17.60
2014,05,02,06,48,17.60
2014,05,02,06,49,17.60
2014,05,02,06,50,17.60
2014,05,02,06,51,17.60
2014,05,02,06,52,17.60
2014,05,02,06,53,17.70
2014,05,02,06,54,17.70
2014,05,02,06,55,17.70
2014,05,02,06,56,17.70
2014,05,02,06,57,17.70
2014,05,02,06,58,17.70
2014,05,02,06,59,17.70
2014,05,02,07,00,17.70
2014,05,02,07,01,17.70
2014,05,02,07,02,17.70
2014,05,02,07,03,17.70
2014,05,02,07,04,17.70
2014,05,02,07,05,17.70
2014,05,02,07,06,17.70
2014,05,02,07,07,17.70
2014,05,02,07,08,17.80
2014,05,02,07,09,17.80
2014,05,02,07,10,17.80
2014,05,02,07,11,17.80
2014,05,02,07,12,17.80
2014,05,02,07,13,17.80
2014,05,02,07,14,17.90
2014,05,02,07,15,17.90
2014,05,02,07,16,18.00
2014,05,02,07,17,18.00
2014,05,02,07,18,18.00
2014,05,02,07,19,18.10
2014,05,02,07,20,18.10
2014,05,02,07,21,18.10
2014,05,02,07,22,18.10
2014,05,02,07,23,18.10
2014,05,02,07,24,18.10
2014,05,02,07,25,18.10
2014,05,02,07,26,18.10
2014,05,02,07,27,18.10
2014,05,02,07,28,18.10
2014,05,02,07,29,18.20
2014,05,02,07,30,18.20
2014,05,02,07,31,18.20
2014,05,02,07,32,18.10
2014,05,02,07,33,18.10
2014,05,02,07,34,18.10
2014,05,02,07,35,18.10
2014,05,02,07,36,18.10
2014,05,02,07,37,18.00
2014,05,02,07,38,17.90
2014,05,02,07,39,17.80
2014,05,02,07,40,17.80
2014,05,02,07,41,17.70
2014,05,02,07,42,17.70
2014,05,02,07,43,17.60
2014,05,02,07,44,17.60
2014,05,02,07,45,17.50
2014,05,02,07,46,17.50
2014,05,02,07,47,17.40
2014,05,02,07,48,17.40
2014,05,02,07,49,17.30
2014,05,02,07,50,17.30
2014,05,02,07,51,17.30
2014,05,02,07,52,17.30
2014,05,02,07,53,17.30
2014,05,02,07,54,17.30
2014,05,02,07,55,17.30
2014,05,02,07,56,17.30
2014,05,02,07,57,17.30
2014,05,02,07,58,17.30
2014,05,02,07,59,17.30
2014,05,02,08,00,17.30
2014,05,02,08,01,17.30
2014,05,02,08,02,17.30
2014,05,02,08,03,17.20
2014,05,02,08,04,17.20
2014,05,02,08,05,17.10
2014,05,02,08,06,17.00
2014,05,02,08,07,17.00
2014,05,02,08,08,17.00
2014,05,02,08,09,17.00
2014,05,02,08,10,17.00
2014,05,02,08,11,17.00
2014,05,02,08,12,17.00
2014,05,02,08,13,17.00
2014,05,02,08,14,16.90
2014,05,02,08,15,16.90
2014,05,02,08,16,16.90
2014,05,02,08,17,17.00
2014,05,02,08,18,17.00
2014,05,02,08,19,17.10
2014,05,02,08,20,17.20
2014,05,02,08,21,17.30
2014,05,02,08,22,17.30
2014,05,02,08,23,17.40
2014,05,02,08,24,17.40
2014,05,02,08,25,17.40
2014,05,02,08,26,17.40
2014,05,02,08,27,17.40
2014,05,02,08,28,17.40
2014,05,02,08,29,17.40
2014,05,02,08,30,17.40
2014,05,02,08,31,17.40
2014,05,02,08,32,17.30
2014,05,02,08,33,17.30
2014,05,02,08,34,17.30
2014,05,02,08,35,17.30
2014,05,02,08,36,17.30
2014,05,02,08,37,17.30
2014,05,02,08,38,17.20
2014,05,02,08,39,17.30
2014,05,02,08,40,17.30
2014,05,02,08,41,17.20
2014,05,02,08,42,17.20
2014,05,02,08,43,17.20
2014,05,02,08,44,17.20
2014,05,02,08,45,17.10
2014,05,02,08,46,17.10
2014,05,02,08,47,17.10
2014,05,02,08,48,17.00
2014,05,02,08,49,17.00
2014,05,02,08,50,17.00
2014,05,02,08,51,17.00
2014,05,02,08,52,17.00
2014,05,02,08,53,17.00
2014,05,02,08,54,17.10
2014,05,02,08,55,17.10
2014,05,02,08,56,17.20
2014,05,02,08,57,17.20
2014,05,02,08,58,17.30
2014,05,02,08,59,17.30
2014,05,02,09,00,17.30
2014,05,02,09,01,17.30
2014,05,02,09,02,17.30
2014,05,02,09,03,17.40
2014,05,02,09,04,17.40
2014,05,02,09,05,17.40
2014,05,02,09,06,17.40
2014,05,02,09,07,17.50
2014,05,02,09,08,17.40
2014,05,02,09,09,17.50
2014,05,02,09,10,17.50
2014,05,02,09,11,17.60
2014,05,02,09,12,17.50
2014,05,02,09,13,17.50
2014,05,02,09,14,17.40
2014,05,02,09,15,17.40
2014,05,02,09,16,17.50
2014,05,02,09,17,17.40
2014,05,02,09,18,17.30
2014,05,02,09,19,17.30
2014,05,02,09,20,17.30
2014,05,02,09,21,17.30
2014,05,02,09,22,17.30
2014,05,02,09,23,17.30
2014,05,02,09,24,17.30
2014,05,02,09,25,17.30
2014,05,02,09,26,17.40
2014,05,02,09,27,17.40
2014,05,02,09,28,17.40
2014,05,02,09,29,17.40
2014,05,02,09,30,17.50
2014,05,02,09,31,17.60
2014,05,02,09,32,17.70
2014,05,02,09,33,17.80
2014,05,02,09,34,17.90
2014,05,02,09,35,17.90
2014,05,02,09,36,17.80
2014,05,02,09,37,17.80
2014,05,02,09,38,17.70
2014,05,02,09,39,17.70
2014,05,02,09,40,17.60
2014,05,02,09,41,17.70
2014,05,02,09,42,17.70
2014,05,02,09,43,17.70
2014,05,02,09,44,17.70
2014,05,02,09,45,17.80
2014,05,02,09,46,17.80
2014,05,02,09,47,17.90
2014,05,02,09,48,17.90
2014,05,02,09,49,17.90
2014,05,02,09,50,17.90
2014,05,02,09,51,18.00
2014,05,02,09,52,18.00
2014,05,02,09,53,18.00
2014,05,02,09,54,18.10
2014,05,02,09,55,18.10
2014,05,02,09,56,18.10
2014,05,02,09,57,18.10
2014,05,02,09,58,18.10
2014,05,02,09,59,18.10
2014,05,02,10,00,18.10
2014,05,02,10,01,18.10
2014,05,02,10,02,18.10
2014,05,02,10,03,18.10
2014,05,02,10,04,18.00
2014,05,02,10,05,18.00
2014,05,02,10,06,18.00
2014,05,02,10,07,18.00
2014,05,02,10,08,18.10
2014,05,02,10,09,18.10
2014,05,02,10,10,18.10
2014,05,02,10,11,18.20
2014,05,02,10,12,18.20
2014,05,02,10,13,18.30
2014,05,02,10,14,18.40
2014,05,02,10,15,18.50
2014,05,02,10,16,18.60
2014,05,02,10,17,18.60
2014,05,02,10,18,18.50
2014,05,02,10,19,18.50
2014,05,02,10,20,18.40
2014,05,02,10,21,18.30
2014,05,02,10,22,18.20
2014,05,02,10,23,18.20
2014,05,02,10,24,18.20
2014,05,02,10,25,18.20
2014,05,02,10,26,18.20
2014,05,02,10,27,18.20
2014,05,02,10,28,18.20
2014,05,02,10,29,18.20
2014,05,02,10,30,18.10
2014,05,02,10,31,18.10
2014,05,02,10,32,18.00
2014,05,02,10,33,18.00
2014,05,02,10,34,17.90
2014,05,02,10,35,17.90
2014,05,02,10,36,17.90
2014,05,02,10,37,17.90
2014,05,02,10,38,17.90
2014,05,02,10,39,17.90
2014,05,02,10,40,17.80
2014,05,02,10,41,17.80
2014,05,02,10,42,17.70
2014,05,02,10,43,17.70
2014,05,02,10,44,17.60
2014,05,02,10,45,17.50
2014,05,02,10,46,17.40
2014,05,02,10,47,17.20
2014,05,02,10,48,17.10
2014,05,02,10,49,16.90
2014,05,02,10,50,16.80
2014,05,02,10,51,16.70
2014,05,02,10,52,16.60
2014,05,02,10,53,16.50
2014,05,02,10,54,16.50
2014,05,02,10,55,16.40
2014,05,02,10,56,16.40
2014,05,02,10,57,16.40
2014,05,02,10,58,16.40
2014,05,02,10,59,16.40
2014,05,02,11,00,16.50
2014,05,02,11,01,16.50
2014,05,02,11,02,16.50
2014,05,02,11,03,16.40
2014,05,02,11,04,16.40
2014,05,02,11,05,16.30
2014,05,02,11,06,16.30
2014,05,02,11,07,16.30
2014,05,02,11,08,16.30
2014,05,02,11,09,16.30
2014,05,02,11,10,16.30
2014,05,02,11,11,16.30
2014,05,02,11,12,16.30
2014,05,02,11,13,16.30
2014,05,02,11,14,16.30
2014,05,02,11,15,16.30
2014,05,02,11,16,16.30
2014,05,02,11,17,16.30
2014,05,02,11,18,16.30
2014,05,02,11,19,16.30
2014,05,02,11,20,16.30
2014,05,02,11,21,16.30
2014,05,02,11,22,16.30
2014,05,02,11,23,16.20
2014,05,02,11,24,16.20
2014,05,02,11,25,16.20
2014,05,02,11,26,16.20
2014,05,02,11,27,16.20
2014,05,02,11,28,16.20
2014,05,02,11,29,16.10
2014,05,02,11,30,16.10
2014,05,02,11,31,16.10
2014,05,02,11,32,16.10
2014,05,02,11,33,16.10
2014,05,02,11,34,16.10
2014,05,02,11,35,16.10
2014,05,02,11,36,16.10
2014,05,02,11,37,16.10
2014,05,02,11,38,16.10
2014,05,02,11,39,16.10
2014,05,02,11,40,16.10
2014,05,02,11,41,16.10
2014,05,02,11,42,16.10
2014,05,02,11,43,16.10
2014,05,02,11,44,16.10
2014,05,02,11,45,16.10
2014,05,02,11,46,16.10
2014,05,02,11,47,16.10
2014,05,02,11,48,16.10
2014,05,02,11,49,16.10
2014,05,02,11,50,16.10
2014,05,02,11,51,16.10
2014,05,02,11,52,16.10
2014,05,02,11,53,16.10
2014,05,02,11,54,16.10
2014,05,02,11,55,16.10
2014,05,02,11,56,16.10
2014,05,02,11,57,16.10
2014,05,02,11,58,16.10
2014,05,02,11,59,16.20
2014,05,02,12,00,16.20
2014,05,02,12,01,16.20
2014,05,02,12,02,16.20
2014,05,02,12,03,16.20
2014,05,02,12,04,16.20
2014,05,02,12,05,16.20
2014,05,02,12,06,16.20
2014,05,02,12,07,16.20
2014,05,02,12,08,16.20
2014,05,02,12,09,16.20
2014,05,02,12,10,16.20
2014,05,02,12,11,16.20
2014,05,02,12,12,16.30
2014,05,02,12,13,16.30
2014,05,02,12,14,16.30
2014,05,02,12,15,16.30
2014,05,02,12,16,16.30
2014,05,02,12,17,16.30
2014,05,02,12,18,16.30
2014,05,02,12,19,16.40
2014,05,02,12,20,16.40
2014,05,02,12,21,16.40
2014,05,02,12,22,16.40
2014,05,02,12,23,16.40
2014,05,02,12,24,16.40
2014,05,02,12,25,16.40
2014,05,02,12,26,16.40
2014,05,02,12,27,16.40
2014,05,02,12,28,16.40
2014,05,02,12,29,16.40
2014,05,02,12,30,16.40
2014,05,02,12,31,16.50
2014,05,02,12,32,16.50
2014,05,02,12,33,16.60
2014,05,02,12,34,16.60
2014,05,02,12,35,16.60
2014,05,02,12,36,16.60
2014,05,02,12,37,16.70
2014,05,02,12,38,16.70
2014,05,02,12,39,16.70
2014,05,02,12,40,16.70
2014,05,02,12,41,16.80
2014,05,02,12,42,16.80
2014,05,02,12,43,16.80
2014,05,02,12,44,16.80
2014,05,02,12,45,16.90
2014,05,02,12,46,16.90
2014,05,02,12,47,16.90
2014,05,02,12,48,16.90
2014,05,02,12,49,16.90
2014,05,02,12,50,16.90
2014,05,02,12,51,16.90
2014,05,02,12,52,16.90
2014,05,02,12,53,16.90
2014,05,02,12,54,16.90
2014,05,02,12,55,16.90
2014,05,02,12,56,16.90
2014,05,02,12,57,16.90
2014,05,02,12,58,16.80
2014,05,02,12,59,16.80
2014,05,02,13,00,16.80
2014,05,02,13,01,16.80
2014,05,02,13,02,16.80
2014,05,02,13,03,16.80
2014,05,02,13,04,16.80
2014,05,02,13,05,16.80
2014,05,02,13,06,16.80
2014,05,02,13,07,16.80
2014,05,02,13,08,16.80
2014,05,02,13,09,16.90
2014,05,02,13,10,16.90
2014,05,02,13,11,16.90
2014,05,02,13,12,16.90
2014,05,02,13,13,16.90
2014,05,02,13,14,16.90
2014,05,02,13,15,16.90
2014,05,02,13,16,16.90
2014,05,02,13,17,16.90
2014,05,02,13,18,16.90
2014,05,02,13,19,17.00
2014,05,02,13,20,17.00
2014,05,02,13,21,17.10
2014,05,02,13,22,17.10
2014,05,02,13,23,17.20
2014,05,02,13,24,17.20
2014,05,02,13,25,17.20
2014,05,02,13,26,17.20
2014,05,02,13,27,17.20
2014,05,02,13,28,17.20
2014,05,02,13,29,17.20
2014,05,02,13,30,17.20
2014,05,02,13,31,17.20
2014,05,02,13,32,17.10
2014,05,02,13,33,17.10
2014,05,02,13,34,17.10
2014,05,02,13,35,17.20
2014,05,02,13,36,17.10
2014,05,02,13,37,17.10
2014,05,02,13,38,17.10
2014,05,02,13,39,17.00
2014,05,02,13,40,16.90
2014,05,02,13,41,16.90
2014,05,02,13,42,16.90
2014,05,02,13,43,16.90
2014,05,02,13,44,16.90
2014,05,02,13,45,16.90
2014,05,02,13,46,17.00
2014,05,02,13,47,17.00
2014,05,02,13,48,17.00
2014,05,02,13,49,17.10
2014,05,02,13,50,17.10
2014,05,02,13,51,17.10
2014,05,02,13,52,17.10
2014,05,02,13,53,17.10
2014,05,02,13,54,17.20
2014,05,02,13,55,17.20
2014,05,02,13,56,17.20
2014,05,02,13,57,17.20
2014,05,02,13,58,17.20
2014,05,02,13,59,17.20
2014,05,02,14,00,17.20
2014,05,02,14,01,17.20
2014,05,02,14,02,17.20
2014,05,02,14,03,17.30
2014,05,02,14,04,17.30
2014,05,02,14,05,17.30
2014,05,02,14,06,17.30
2014,05,02,14,07,17.40
2014,05,02,14,08,17.40
2014,05,02,14,09,17.40
2014,05,02,14,10,17.40
2014,05,02,14,11,17.40
2014,05,02,14,12,17.40
2014,05,02,14,13,17.40
2014,05,02,14,14,17.40
2014,05,02,14,15,17.30
2014,05,02,14,16,17.40
2014,05,02,14,17,17.40
2014,05,02,14,18,17.40
2014,05,02,14,19,17.40
2014,05,02,14,20,17.40
2014,05,02,14,21,17.40
2014,05,02,14,22,17.40
2014,05,02,14,23,17.30
2014,05,02,14,24,17.30
2014,05,02,14,25,17.30
2014,05,02,14,26,17.30
2014,05,02,14,27,17.30
2014,05,02,14,28,17.30
2014,05,02,14,29,17.30
2014,05,02,14,30,17.20
2014,05,02,14,31,17.20
2014,05,02,14,32,17.20
2014,05,02,14,33,17.20
2014,05,02,14,34,17.20
2014,05,02,14,35,17.20
2014,05,02,14,36,17.20
2014,05,02,14,37,17.20
2014,05,02,14,38,17.30
2014,05,02,14,39,17.30
2014,05,02,14,40,17.30
2014,05,02,14,41,17.40
2014,05,02,14,42,17.40
2014,05,02,14,43,17.40
2014,05,02,14,44,17.40
2014,05,02,14,45,17.40
2014,05,02,14,46,17.40
2014,05,02,14,47,17.40
2014,05,02,14,48,17.40
2014,05,02,14,49,17.30
2014,05,02,14,50,17.30
2014,05,02,14,51,17.30
2014,05,02,14,52,17.30
2014,05,02,14,53,17.30
2014,05,02,14,54,17.30
2014,05,02,14,55,17.30
2014,05,02,14,56,17.30
2014,05,02,14,57,17.30
2014,05,02,14,58,17.30
2014,05,02,14,59,17.30
2014,05,02,15,00,17.20
2014,05,02,15,01,17.20
2014,05,02,15,02,17.20
2014,05,02,15,03,17.20
2014,05,02,15,04,17.20
2014,05,02,15,05,17.30
2014,05,02,15,06,17.30
2014,05,02,15,07,17.30
2014,05,02,15,08,17.30
2014,05,02,15,09,17.30
2014,05,02,15,10,17.40
2014,05,02,15,11,17.50
2014,05,02,15,12,17.60
2014,05,02,15,13,17.60
2014,05,02,15,14,17.60
2014,05,02,15,15,17.70
2014,05,02,15,16,17.80
2014,05,02,15,17,17.90
2014,05,02,15,18,17.90
2014,05,02,15,19,18.10
2014,05,02,15,20,18.20
2014,05,02,15,21,18.20
2014,05,02,15,22,18.30
2014,05,02,15,23,18.30
2014,05,02,15,24,18.30
2014,05,02,15,25,18.40
2014,05,02,15,26,18.50
2014,05,02,15,27,18.70
2014,05,02,15,28,18.80
2014,05,02,15,29,18.90
2014,05,02,15,30,18.90
2014,05,02,15,31,18.90
2014,05,02,15,32,19.00
2014,05,02,15,33,19.00
2014,05,02,15,34,19.00
2014,05,02,15,35,19.00
2014,05,02,15,36,18.80
2014,05,02,15,37,18.70
2014,05,02,15,38,18.70
2014,05,02,15,39,18.80
2014,05,02,15,40,18.80
2014,05,02,15,41,18.80
2014,05,02,15,42,18.90
2014,05,02,15,43,19.00
2014,05,02,15,44,19.10
2014,05,02,15,45,19.10
2014,05,02,15,46,19.10
2014,05,02,15,47,19.00
2014,05,02,15,48,18.90
2014,05,02,15,49,18.90
2014,05,02,15,50,18.90
2014,05,02,15,51,18.80
2014,05,02,15,52,18.90
2014,05,02,15,53,18.90
2014,05,02,15,54,19.00
2014,05,02,15,55,19.10
2014,05,02,15,56,19.00
2014,05,02,15,57,18.90
2014,05,02,15,58,18.90
2014,05,02,15,59,18.80
2014,05,02,16,00,18.70
2014,05,02,16,01,18.60
2014,05,02,16,02,18.50
2014,05,02,16,03,18.40
2014,05,02,16,04,18.40
2014,05,02,16,05,18.30
2014,05,02,16,06,18.30
2014,05,02,16,07,18.20
2014,05,02,16,08,18.10
2014,05,02,16,09,18.00
2014,05,02,16,10,17.90
2014,05,02,16,11,17.80
2014,05,02,16,12,17.80
2014,05,02,16,13,17.70
2014,05,02,16,14,17.60
2014,05,02,16,15,17.60
2014,05,02,16,16,17.60
2014,05,02,16,17,17.60
2014,05,02,16,18,17.70
2014,05,02,16,19,17.80
2014,05,02,16,20,17.80
2014,05,02,16,21,17.90
2014,05,02,16,22,17.90
2014,05,02,16,23,18.00
2014,05,02,16,24,18.00
2014,05,02,16,25,18.00
2014,05,02,16,26,18.00
2014,05,02,16,27,17.90
2014,05,02,16,28,17.90
2014,05,02,16,29,17.90
2014,05,02,16,30,17.90
2014,05,02,16,31,17.90
2014,05,02,16,32,17.90
2014,05,02,16,33,17.90
2014,05,02,16,34,17.90
2014,05,02,16,35,17.80
2014,05,02,16,36,17.80
2014,05,02,16,37,17.80
2014,05,02,16,38,17.90
2014,05,02,16,39,17.90
2014,05,02,16,40,17.90
2014,05,02,16,41,17.90
2014,05,02,16,42,17.90
2014,05,02,16,43,18.00
2014,05,02,16,44,18.10
2014,05,02,16,45,18.10
2014,05,02,16,46,18.20
2014,05,02,16,47,18.20
2014,05,02,16,48,18.10
2014,05,02,16,49,18.10
2014,05,02,16,50,18.10
2014,05,02,16,51,18.00
2014,05,02,16,52,17.90
2014,05,02,16,53,17.90
2014,05,02,16,54,17.80
2014,05,02,16,55,17.80
2014,05,02,16,56,17.70
2014,05,02,16,57,17.70
2014,05,02,16,58,17.70
2014,05,02,16,59,17.70
2014,05,02,17,00,17.70
2014,05,02,17,01,17.70
2014,05,02,17,02,17.70
2014,05,02,17,03,17.80
2014,05,02,17,04,17.90
2014,05,02,17,05,17.90
2014,05,02,17,06,18.00
2014,05,02,17,07,18.10
2014,05,02,17,08,18.20
2014,05,02,17,09,18.30
2014,05,02,17,10,18.40
2014,05,02,17,11,18.50
2014,05,02,17,12,18.60
2014,05,02,17,13,18.70
2014,05,02,17,14,18.80
2014,05,02,17,15,18.80
2014,05,02,17,16,18.80
2014,05,02,17,17,18.70
2014,05,02,17,18,18.60
2014,05,02,17,19,18.60
2014,05,02,17,20,18.60
2014,05,02,17,21,18.60
2014,05,02,17,22,18.60